shoulder
new_line
new_line
first
second
third
Al di la della Luna; Beyond the Moon; Astrophotography; Astrofotografia; Danilo Pivato
 
 
         
         
2020

Orbital Elements

Epoch 2020 Nov. 7.0 TT = JDT 2459160.5
T 2020 Oct. 25.62330 TT                                                                    Rudenko
q   1.2682453                    (2000.0)                 P                      Q
n   0.00709625     Peri.  328.44573     +0.72843691     -0.57193594
a  26.8194697      Node    71.25019     +0.68169414     +0.55013749
e   0.9527118      Incl.   23.47346     +0.06835770     +0.6084718
P 139
                        
 
         
         
2020.11.13
2020.11.13 500mm
         
         
       
         
         
         
         
         
         

 

       
 
Since: 01/01/2004
 
       
 
Since: 01/11/2010